Accueil
METAR-TAF:

METAR-TAF

Aéroports :

Chesapeake Regional Airport

Norfolk, Virginie, États-Unis

latitude: 36-39-56N, longitude: 076-19-14W, altitude: 6 m

Observation

Le bulletin a été fait il y a 30 minutes, à 17:15 UTC
Vent 10 kt de nord avec des rafales jusqu'à 15 kt
Température 10°C
Humidité 46%
Pression 1027 hPa
Visibilité: 16.1 km
Ciel couvert à une hauteur de 6500 ft

METAR: KCPK 191715Z AUTO 01010G15KT 10SM OVC065 10/M01 A3034 RMK AO2 T00951007

Heure: 12:45 (17:45 UTC)


TAF: absent

Observations et prévisions météorologiques de plus de 4000 aéroports (messages METAR et TAF).

Les stations disponibles sont représentées par des disques jaunes et rouges sur la carte.

Passer la souris dessus pour voir le nom de la station.

Cliquer dessus pour voir les observations et prévisions météorologiques.

Pour changer de carte: cliquez sur les boutons verts avec une croix noire pour zoomer, sur le bouton vert avec un tiret pour effectuer un zoom arrière, ou sur les flèches vertes pour les cartes adjacentes.


METAR-TAF: